Regional Weather Roundup
Issued by NWS Upton, NY

Current Version | Previous Version | Graphics & Text | Print | Product List | Glossary Off
Versions: 1 2 3 4 5 6 7 8 9 10 11 12 13 14 15 16 17 18 19 20 21 22 23 24 25 26 27 28 29 30

000
ASUS41 KOKX 271005
RWROKX

REGIONAL WEATHER ROUNDUP
NATIONAL WEATHER SERVICE NEW YORK NY
600 AM EDT SAT AUG 27 2016

NOTE: "FAIR" INDICATES FEW OR NO CLOUDS BELOW 12,000 FEET WITH NO
SIGNIFICANT WEATHER AND/OR OBSTRUCTIONS TO VISIBILITY.

NYZ071-072-176-178-NJZ106-104-271100-
NEW YORK CITY METRO AREA

CITY           SKY/WX    TMP DP  RH WIND       PRES   REMARKS
Central Park     N/A     73  59  60 MISG        N/A
LaGuardia APRT CLEAR     76  61  59 N10       30.13R
Kennedy INTL   PTCLDY    75  61  61 NE8       30.14R
Newark/Liberty PTCLDY    71  63  75 N8        30.14R
Bronx Bot Gard   N/A     72  59  64 NW7       30.16R
Wall St Helipt SUNNY     77  64  65 NE6       30.14R
Teterboro      CLEAR     70  62  76 CALM      30.14R
$$

NYZ177-179-078>081-271100-
LONG ISLAND NEW YORK

CITY           SKY/WX    TMP DP  RH WIND       PRES   REMARKS
Farmingdale    CLEAR     71  62  73 NE7       30.14R
MacArthur/ISP  PTCLDY    71  62  73 N8        30.12R
Shirley        CLEAR     68  62  81 N3        30.13R
Riverhead      NOT AVBL
Westhampton    CLEAR     65  61  87 CALM      30.14R
Southampton      N/A     72  66  83 N3        30.08
Bridgehampton    N/A     70  64  83 NE1       30.10
East Hampton   FAIR      69  64  85 N3        30.11R
Montauk          N/A     69  66  90 VRB3      30.12R
$$

NYZ052-065-067-271100-
HUDSON VALLEY

CITY           SKY/WX    TMP DP  RH WIND       PRES   REMARKS
White Plains   CLEAR     68  61  78 N10       30.15R
Newburgh       CLEAR     63  63 100 CALM      30.18R
Montgomery     CLEAR     60  59  96 S3        30.17R
Poughkeepsie   CLEAR     59  58  96 CALM      30.16R
Albany         PTCLDY    63  60  90 CALM      30.17R
$$

NJZ001-105-106-008-010-013-015-019>022-104-271100-
NEW JERSEY

CITY           SKY/WX    TMP DP  RH WIND       PRES   REMARKS
Newark/Liberty PTCLDY    71  63  75 N8        30.14R
Teterboro      CLEAR     70  62  76 CALM      30.14R
Caldwell       CLEAR     66  64  93 CALM      30.16R
Morristown       N/A     61  59  94 CALM      30.16R FOG
Somerville     CLEAR     63  61  93 CALM      30.13R
Linden         FAIR      72  62  72 CALM      30.15R
Sussex         FOG       60  60 100 CALM      30.17R VSB 1
Abdover          N/A     61  60  97 CALM      30.18R
Trenton        CLEAR     70  63  78 NW6       30.14R
Millville      CLEAR     66  66 100 CALM      30.12R
Atlantic City  CLEAR     67  63  87 N3        30.12R
Wrightstown    CLEAR     67  64  89 NE2       30.11R
Toms River     CLEAR     64  62  93 CALM      30.14R
Belmar         CLEAR     69  65  86 N6        30.14R
$$

PAZ047>061-062-071-271100-
EASTERN PENNSYLVANIA

CITY           SKY/WX    TMP DP  RH WIND       PRES   REMARKS
Philadelphia   CLEAR     74  64  71 N7        30.14R
Allentown      CLEAR     64  60  87 CALM      30.17R
Scranton       CLEAR     63  61  93 E6        30.20R
$$

CTZ002-004>006-009-010-012-RIZ004-006-007-MAZ004-011-015-271100-
SOUTHERN NEW ENGLAND
 IN CT

CITY           SKY/WX    TMP DP  RH WIND       PRES   REMARKS
Bradley INTL   PTCLDY    66  60  81 N6        30.15R
Hartford       CLEAR     69  63  81 CALM      30.14R
Danbury        CLEAR     60  58  92 CALM      30.17R
Wtrbury/Oxford   N/A     63  55  77 CALM      30.18R
Bridgeport     CLEAR     72  60  66 N6        30.13R
Meriden        CLEAR     63  59  87 CALM      30.14R
New Haven      CLEAR     67  60  78 N5        30.14R
Chester        FAIR      68  63  83 NW7       30.14R
Groton         CLEAR     70  65  84 N9        30.11R
Wilimantic     CLEAR     64  63  96 CALM      30.14R

 IN RI

CITY           SKY/WX    TMP DP  RH WIND       PRES   REMARKS
Providence     PTCLDY    70  60  70 N6        30.12R
Block Island   CLEAR     69  65  86 NE3       30.12R
Westerly       CLEAR     68  62  81 CALM      30.12R
 IN MA

CITY           SKY/WX    TMP DP  RH WIND       PRES   REMARKS
Boston         CLEAR     73  59  61 NW8       30.12R
Worcester      CLEAR     70  53  54 N6        30.17R
Westfield      CLEAR     61  60  97 CALM      30.15R
Provincetown   CLEAR     68  64  87 N7        30.11R
Nantucket      CLEAR     70  61  73 N13       30.08R
$$

ANZ330-335-338-340-345-350-353-355-271100-
COASTAL MARINE OBSERVATIONS


STATION/POSITION TIME  SKY/WX   TEMP    WIND        PRES    VSBY  WAVE
                                AIR SEA DIR/SP/G                  HT/PER
                 (UTC)          (F)     (DEG/KT/KT) (MB)    (MI)  (FT/S)
NY HARB ENTRANCE 0850            76 75   10/ 10/ 10 1018.9          2/ 8
20S FIRE ISLAND  0850            75 74   10/ 10/ 12 1018.6          2/ 8
GREAT SOUTH BAY  0915            74 79  360/  8/ 10   N/A
23 SSW MONTAUK P 0850            74 74   10/ 14/ 16 1018.7          2/ 6
15 E BARNEGAT LI 0900               75                N/A           3/ 3
HUDSON CANYON    0850            79 78              1017.7          3/ 8
KINGS POINT      0900            74 76              1019.7
EXECUTION ROCKS  0900            74      10/  6/ 10   N/A
CENTRAL LI SOUND 0900            75 75   20/  8/ 10   N/A           1/ 2
EASTERN LI SOUND 0900            71 71   20/  8/ 10   N/A
ROBBINS REEF     0900            76     350/  7/  9 1019.0
$$


>>>>>>>>>>>>>>>>>>>>>>>>>>>> KEY <<<<<<<<<<<<<<<<<<<<<<<<<<<
>                                                          <
>     SKY/WX - Sky Condition/Present Weather               <
>     TMP    - Temperature in Fahrenheit                   <
>     DP     - Dew Point in Fahrenheit                     <
>     RH     - Relative Humidity in Percent                <
>     WIND   - Direction (from) and Speed in MPH           <
>     PRES   - Mean Sea Level Pressure (inches of Hg)      <
>     WCI    - Wind Chill Index                            <
>     VSB    - VISIBILITY IN MILES                         <
>     HX     - HEAT INDEX                                  <
>     TC     - TEMPERATURE IN CELSIUS                      <
>     VRB    - VARIABLE WIND DIRECTION                     <
>                                                          <
>>>>>>>>>>>>>>>>>>>>>>>>>>>> KEY <<<<<<<<<<<<<<<<<<<<<<<<<<<




USA.gov is the U.S. government's official web portal to all federal, state and local government web resources and services.